San Angelo Regional Mathis Field San Angelo US
ICAO: KSJT
IATA: SJT
Category: Medium
Scheduled Services: Yes

Elevation: 1919 ft
TransAlt. 18000 ft.

Airport Communications:
APP/DEP:125.35
ATIS:128.45
CTAF:118.3
GND:121.9
RDO:122.25
TWR:118.3
UNICOM:122.95

KSJT Zoom In..

If you have problems with the map follow the link
https://www.worldairports.se/pages/airport.php?
ICAO=KSJT

Runways:

(A) RW 03 length 5939 ft width 150 ft
ILS 109.70 / hdg 34

(B) RW 09 length 4402 ft width 75 ft
---- / hdg 88

(C) RW 18 length 8049 ft width 150 ft
---- / hdg 178

(D) RW 21 length 5939 ft width 150 ft
---- / hdg 214

(E) RW 27 length 4402 ft width 75 ft
---- / hdg 268

(F) RW 36 length 8049 ft width 150 ft
---- / hdg 358

Location; KSJT
Day. 25 / Time. 07.51 Zulu
* Altimeter: 30.04
* Temperature: 09° c. 48.2°f.
* Wind from: 180° Speed 07 kn.
Dewpoint: 03° c.
Visibility: 10 Statute Miles.
Clouds: Clear (automated report).

KSJT 250751Z AUTO 18007KT 10SM CLR 09/03 A3004 RMK AO2 SLP165 T00890033


Wind From 180°
Speed 07 kn.

 
 
jpsmedia worldairports.se 2020   terms of use